Wind_Speed
38 37 36 35 34 31 29 27 26 26 27 27 28 29 30 31 31 32 32 31 31 30 29 29 28 28 27 27 26 25 25 26 26 26 25 23 23 24 27 30 31 30 28 27 27 26 26 28 30 30 29 27 25 23 22 21 22 23 24 24 23 22 22 22 23 23 23 22 21 20 20 20 20 20 19 17 17 16 16 15 15 14 14 14 14 13
35 34 32 31 29 28 27 26 25 26 27 28 29 29 30 31 31 31 31 31 30 30 29 28 28 27 27 26 26 25 25 26 26 25 24 23 23 25 27 29 29 28 27 27 27 27 27 28 29 29 28 25 23 22 21 21 22 23 25 25 24 23 22 22 22 22 22 21 20 20 20 20 20 20 19 18 16 16 15 15 14 14 14 13 13 13
30 29 28 26 25 25 25 26 26 26 28 29 29 30 30 31 31 31 30 30 30 29 29 28 28 27 27 26 26 25 25 25 25 24 24 24 25 26 27 26 26 25 26 27 27 27 28 28 28 27 25 23 22 21 21 21 22 24 25 25 24 23 22 22 22 22 21 21 20 19 19 20 20 20 19 17 16 16 15 14 14 14 13 13 13 13
27 26 25 24 25 25 26 27 27 28 28 29 30 30 30 30 30 30 29 29 29 29 28 28 27 27 27 26 26 26 25 25 25 24 23 23 24 24 24 23 23 24 25 27 28 28 28 28 27 25 23 22 21 21 21 21 22 24 25 26 25 23 23 23 23 22 21 21 20 19 19 20 20 19 18 17 16 15 14 14 14 13 13 13 13 12
26 26 26 26 27 28 28 28 29 29 29 29 30 30 29 29 29 29 29 29 29 28 28 28 27 27 27 26 26 26 26 25 24 22 21 21 21 21 21 22 23 24 26 27 28 27 27 26 25 24 23 22 21 20 20 20 22 24 26 26 25 24 24 24 23 23 22 21 20 20 19 19 19 19 18 17 16 15 14 14 13 13 13 13 13 12
27 27 28 29 29 29 29 29 29 29 29 29 29 29 29 29 29 29 28 28 28 28 28 27 27 27 27 26 26 26 26 24 23 21 20 21 21 22 23 24 25 26 27 27 26 26 26 26 25 24 23 22 21 19 19 20 22 25 26 26 26 25 25 25 24 24 23 22 21 20 19 19 18 18 17 16 15 14 14 13 13 13 13 13 13 12
29 29 30 30 30 30 29 29 29 29 29 29 29 29 29 29 28 28 28 28 28 28 27 27 27 27 27 27 27 27 26 24 22 20 21 22 24 25 26 27 27 27 27 26 26 27 27 27 27 26 24 22 21 20 20 21 24 26 27 27 27 26 26 26 25 24 23 22 21 20 19 18 18 17 17 15 14 14 13 13 13 13 13 13 13 12
31 31 31 31 31 31 30 30 29 29 29 29 30 29 29 28 28 28 28 28 28 27 27 27 27 26 26 27 27 27 25 23 21 21 23 25 27 28 28 28 28 28 28 28 29 30 30 30 30 28 25 23 21 21 21 23 25 27 27 27 27 27 27 26 25 24 23 22 21 20 19 18 17 16 15 15 14 13 13 13 13 13 13 13 13 12
34 34 33 32 32 32 31 30 30 29 29 29 30 29 29 28 28 28 28 28 28 27 27 26 26 26 26 27 27 27 25 22 21 23 26 28 29 30 30 30 30 30 31 31 32 32 33 33 31 29 25 23 21 22 23 25 27 27 28 27 27 27 26 25 24 23 22 21 20 19 18 17 16 15 14 14 13 13 13 13 13 13 13 13 13 13
35 35 34 34 33 32 32 31 30 29 29 29 30 30 29 28 28 27 27 27 27 27 27 27 26 26 26 27 27 26 25 24 24 26 29 30 32 32 33 33 33 33 33 33 33 33 33 32 30 27 24 22 22 23 25 27 28 28 28 27 27 26 25 24 23 22 21 20 19 19 18 17 16 15 14 13 13 13 13 13 13 13 13 13 13 13
37 36 35 35 34 33 32 31 30 30 29 29 30 29 28 28 27 27 27 27 27 27 27 27 27 27 27 27 27 27 26 26 27 28 30 32 33 34 34 34 34 34 33 32 32 32 32 31 28 25 23 22 23 25 27 28 28 28 27 26 26 25 24 22 21 20 19 19 19 18 18 17 16 15 14 13 13 13 13 13 13 13 13 13 13 13
37 37 36 35 34 33 32 31 31 30 30 29 29 29 28 27 27 27 28 27 27 27 27 28 28 28 27 27 27 27 26 27 27 28 30 31 32 33 33 33 32 32 31 30 30 30 30 29 26 24 22 23 24 26 28 28 27 27 26 25 24 23 22 20 19 18 18 18 19 18 18 17 16 15 14 14 13 13 13 13 13 13 13 13 13 13
38 37 36 35 34 33 32 31 31 30 30 29 29 28 28 28 28 28 29 28 28 28 28 29 29 29 29 28 28 28 27 26 27 27 28 29 30 30 30 30 30 29 28 28 28 28 28 27 25 24 23 24 26 27 28 27 26 25 24 23 23 21 20 18 17 17 18 19 19 19 18 17 16 15 15 14 13 13 12 13 13 13 13 13 13 13
38 37 36 35 34 33 32 31 31 30 30 29 29 29 29 29 29 29 29 30 30 30 30 30 30 30 30 30 30 29 28 27 27 27 28 29 29 29 29 29 29 28 27 27 27 27 27 26 25 24 24 25 27 27 27 26 25 23 23 22 21 20 18 17 17 18 19 19 19 19 18 17 16 15 14 13 13 12 12 13 13 13 13 13 13 13
37 36 36 35 34 33 32 31 31 30 30 29 30 30 30 30 30 30 30 30 30 31 31 31 31 31 31 30 30 30 29 29 29 29 30 30 30 30 30 30 29 28 27 27 27 27 27 26 26 25 25 26 27 26 26 24 23 22 21 20 19 18 17 17 18 19 19 19 19 18 17 17 16 15 14 13 12 12 12 13 13 13 13 13 13 13
37 36 35 35 34 33 32 31 31 31 30 30 30 31 31 31 31 31 31 31 31 31 31 31 31 31 31 31 31 31 31 31 31 31 32 32 32 31 31 31 30 29 28 27 27 27 27 26 26 26 26 26 26 25 24 23 22 20 19 18 17 17 17 18 19 19 19 19 18 18 17 16 15 14 13 12 12 12 13 13 13 13 13 13 13 13
37 36 35 35 34 33 32 31 31 31 31 31 31 31 32 32 32 32 32 32 32 32 32 32 32 32 32 32 32 32 32 32 32 32 32 33 33 32 31 31 30 29 28 27 27 27 27 26 26 26 26 26 25 24 23 22 20 19 18 17 17 17 18 19 19 19 18 18 17 17 16 15 14 13 12 12 12 12 13 13 13 13 13 13 13 13
36 36 35 34 34 33 32 32 31 31 31 31 32 32 32 33 33 33 33 33 33 33 33 33 34 33 33 33 33 33 32 32 33 33 32 32 32 32 31 30 30 29 28 28 27 27 27 26 26 25 25 25 24 23 22 21 20 19 18 17 17 18 18 19 19 18 17 17 16 16 15 14 13 13 12 12 13 13 13 13 13 13 13 13 13 13
36 35 35 34 34 34 33 32 32 32 32 32 32 33 33 33 34 34 34 34 34 34 34 34 34 34 34 33 33 33 32 32 32 32 32 31 31 31 31 30 29 29 28 27 27 27 27 26 26 25 25 24 24 23 22 20 19 19 18 18 18 18 18 18 17 16 16 15 15 14 14 13 13 13 13 13 13 13 13 13 13 13 13 13 14 14
36 35 34 34 34 34 34 33 32 32 32 32 33 33 34 34 34 34 34 34 34 34 34 34 34 34 34 33 33 32 32 32 32 31 31 30 30 31 30 30 29 28 28 27 27 27 26 26 25 24 24 24 23 22 21 20 19 19 19 19 18 18 17 16 15 13 13 13 13 14 13 13 13 13 14 14 13 13 13 13 13 13 13 14 14 14
35 35 34 34 34 34 34 33 32 32 32 33 33 34 34 34 34 34 34 34 34 34 34 34 34 34 34 33 33 32 32 32 31 30 30 30 30 30 30 30 29 28 27 27 27 26 26 25 24 24 23 23 23 22 21 20 20 20 19 19 18 17 16 14 13 12 13 13 14 14 14 14 14 14 14 14 14 13 13 13 13 14 14 14 14 14
35 34 34 34 34 34 34 33 32 32 32 33 33 33 34 34 34 34 34 34 34 34 34 34 34 34 34 33 32 32 32 32 31 31 30 30 30 31 30 30 29 28 27 26 26 25 25 24 23 23 23 23 23 22 21 21 20 20 19 19 18 16 15 13 13 14 15 16 16 15 14 14 14 15 15 14 14 14 13 13 13 14 14 14 14 14
34 34 34 34 34 34 34 33 33 32 32 32 33 33 34 34 34 35 35 34 34 34 34 34 34 34 33 33 33 33 33 32 32 31 31 31 31 31 30 30 29 28 26 25 25 25 24 23 23 23 24 24 23 22 21 21 21 20 19 18 17 16 15 15 15 16 17 18 17 16 15 15 15 15 15 14 14 14 13 14 14 14 14 14 14 14
34 34 34 34 34 34 34 33 33 32 32 32 33 33 34 34 34 35 35 34 34 34 34 34 34 34 34 33 33 33 33 33 32 32 31 31 30 30 30 29 28 27 25 24 24 24 23 23 23 24 24 24 23 22 22 22 21 20 19 18 17 17 16 16 17 18 19 18 17 16 16 16 15 15 15 14 14 14 14 14 14 14 14 14 14 14
34 34 34 34 34 34 34 33 33 32 32 32 33 33 34 34 34 34 34 34 34 34 34 34 34 34 34 34 33 33 33 33 32 31 31 30 29 29 28 28 27 25 24 23 23 23 23 23 23 23 23 22 21 21 21 21 21 20 19 18 17 17 17 18 18 18 18 18 17 17 16 16 16 15 15 14 14 14 14 14 14 14 14 14 14 14
34 34 34 34 34 34 33 33 33 32 32 33 33 33 34 34 34 34 34 34 33 33 34 34 33 33 33 33 32 32 32 32 31 31 30 28 28 27 27 27 25 24 23 23 23 23 23 23 22 21 20 19 19 19 20 20 20 19 18 18 18 17 18 18 18 18 18 17 17 17 16 16 16 15 15 15 14 14 14 14 14 14 14 14 14 14
34 34 34 34 33 33 33 33 33 32 32 32 33 33 33 33 33 33 33 33 33 33 33 33 33 32 32 32 31 31 30 30 30 29 28 27 26 26 26 25 25 23 23 23 23 23 22 20 19 17 16 16 16 17 18 18 18 18 17 17 17 17 17 17 17 17 17 17 17 17 16 16 16 15 15 15 14 14 14 14 14 14 14 14 14 14
34 34 33 33 33 33 33 33 32 32 32 32 32 32 32 33 33 32 32 32 32 32 32 32 31 31 30 29 29 29 29 29 28 27 26 25 24 25 25 25 24 23 23 22 22 20 19 17 16 16 15 15 15 16 16 17 17 17 17 17 17 17 17 17 18 18 17 17 17 17 16 16 16 15 15 15 14 14 14 14 14 14 14 14 14 14
34 33 33 33 33 33 32 32 32 32 32 32 32 32 32 31 31 31 31 31 31 31 31 30 30 29 28 27 27 27 27 27 26 25 24 23 23 24 24 24 23 22 21 20 19 18 17 16 16 16 15 15 15 16 16 17 17 17 17 17 17 17 18 18 18 17 17 17 17 16 16 16 15 15 14 14 14 14 14 13 13 13 13 13 13 13
33 33 33 33 32 32 32 32 32 31 31 31 31 31 31 30 30 30 30 31 30 30 29 29 28 27 26 25 25 25 25 25 24 23 22 22 22 23 23 23 21 20 19 19 18 17 17 16 16 16 16 16 16 17 17 17 17 17 17 17 18 18 18 18 17 17 17 17 16 16 15 15 15 14 14 14 13 13 13 13 13 13 13 13 13 13
33 33 33 32 32 32 32 31 31 31 30 30 30 30 30 29 29 29 29 29 29 28 28 27 26 25 24 23 23 23 23 22 22 21 21 21 21 22 21 20 19 19 19 18 18 18 17 17 17 17 17 17 17 17 17 17 17 17 17 17 17 17 17 17 17 17 16 16 16 15 15 14 14 14 13 13 13 13 13 13 13 13 13 13 13 13
33 32 32 32 32 31 31 30 30 30 29 29 29 29 29 28 28 28 28 28 27 26 26 25 23 22 22 22 22 21 21 21 20 20 20 20 20 21 20 20 19 19 19 19 19 18 18 18 18 18 18 18 18 18 18 17 17 17 17 17 17 17 17 16 16 16 16 15 15 15 14 14 13 13 13 13 13 13 13 13 13 13 13 13 13 14
32 32 32 31 31 31 30 30 29 29 28 28 28 28 28 28 27 27 27 26 25 24 23 22 21 21 21 20 20 20 20 21 20 20 20 20 20 21 20 20 20 20 20 20 20 19 19 19 19 19 18 18 18 18 18 17 17 17 17 17 17 16 16 16 16 15 15 15 14 14 13 13 13 13 13 13 13 13 13 13 13 13 13 13 14 14
32 32 31 31 30 30 29 28 28 28 27 27 27 27 27 26 26 26 25 24 23 22 21 20 19 19 19 19 19 19 20 21 20 20 20 21 21 21 20 20 20 20 21 20 20 20 19 19 19 19 19 18 18 18 17 17 17 17 16 16 16 16 16 15 15 14 14 14 13 13 13 13 13 13 13 13 13 13 13 13 13 13 13 14 14 14
32 31 31 30 30 29 28 27 27 27 26 26 26 26 26 25 25 24 23 22 21 20 19 18 18 19 19 18 18 19 20 20 20 20 20 21 21 21 20 21 21 21 21 21 20 20 20 19 19 19 19 18 18 17 17 17 17 16 16 16 15 15 15 14 14 14 13 13 13 13 13 13 13 13 13 13 13 14 14 13 13 13 13 13 13 13
31 31 30 29 29 28 27 27 26 26 26 26 26 25 25 24 23 22 22 21 20 19 18 18 19 19 19 19 19 20 20 20 20 20 20 20 20 20 20 20 20 21 21 20 20 20 20 19 19 19 18 18 17 17 17 17 16 16 15 15 14 14 14 13 13 13 13 13 14 14 14 14 14 14 14 14 14 14 14 13 13 13 13 13 13 13
30 30 29 28 28 27 26 26 26 25 25 25 25 25 24 23 22 21 21 20 19 19 19 19 19 20 20 20 21 21 21 21 20 20 20 20 20 20 19 19 20 20 20 20 20 20 20 19 19 18 18 17 17 17 16 16 16 15 15 14 14 13 13 13 13 13 14 14 14 14 14 14 14 14 14 14 14 13 13 13 13 13 13 13 13 13
29 29 28 27 27 26 26 25 25 25 25 25 24 24 23 22 21 21 20 20 20 20 20 20 21 21 21 22 22 22 22 21 20 19 19 19 19 19 19 19 19 19 20 20 20 20 19 19 19 18 18 17 17 16 16 15 15 14 14 14 14 13 13 14 14 14 14 14 14 14 14 14 14 14 14 14 14 13 13 13 13 13 13 14 14 14
28 28 27 26 26 26 25 25 25 25 25 24 24 23 23 22 21 21 21 21 21 21 21 22 22 22 22 23 23 22 21 20 19 19 18 19 19 19 19 19 19 20 20 20 20 20 19 19 19 18 17 17 16 16 15 15 14 14 14 14 14 14 14 14 14 14 14 14 14 14 14 14 14 14 14 14 14 14 14 14 14 14 14 14 14 15
27 27 26 26 25 25 25 24 24 24 24 24 24 23 23 22 22 22 22 22 22 23 23 23 23 23 23 23 23 22 21 20 19 19 19 19 19 19 20 20 20 20 20 20 20 20 19 19 18 18 17 17 16 15 15 14 14 14 15 14 14 14 15 14 14 14 14 14 14 14 14 14 14 14 14 14 14 14 14 14 14 14 15 15 15 15
27 26 25 25 25 24 24 24 24 24 24 24 24 23 23 22 22 22 23 23 23 23 24 24 24 24 24 24 23 22 21 21 20 21 21 21 21 21 21 21 21 21 21 21 20 20 20 19 18 18 17 16 16 15 15 15 15 15 15 15 15 15 15 15 15 14 14 14 14 14 14 14 14 14 14 15 15 15 15 15 15 15 16 16 16 16
26 25 25 25 24 24 24 24 24 24 24 24 24 23 23 23 23 23 24 24 24 25 25 25 25 25 25 24 24 23 22 22 22 22 22 22 22 22 22 22 22 22 21 21 21 20 20 19 18 17 16 16 15 15 15 15 15 15 15 15 15 15 15 15 15 15 15 15 15 15 15 15 15 15 15 15 15 16 16 16 16 16 17 17 17 18
26 25 25 24 24 23 23 24 24 24 24 24 24 23 23 24 24 25 25 25 26 26 26 26 26 26 25 25 25 24 23 23 23 23 23 23 23 23 22 22 22 22 22 21 21 20 19 19 18 17 16 16 16 16 16 16 16 16 16 16 16 16 15 15 15 15 15 15 15 15 15 15 16 16 16 16 16 17 17 17 17 17 18 18 18 19
25 25 24 23 23 23 23 24 24 24 24 24 24 24 24 25 25 26 26 27 27 27 27 27 27 26 26 26 26 25 24 24 23 23 23 23 23 23 23 22 22 22 21 21 20 20 19 18 17 17 17 16 16 16 16 16 17 17 17 17 16 16 16 16 16 16 15 15 16 16 16 16 16 16 17 17 17 17 18 18 18 19 19 19 20 20
25 24 23 23 23 23 24 24 24 24 24 24 24 24 25 26 26 27 27 28 28 28 27 27 27 27 26 26 26 26 25 25 24 24 24 23 23 23 23 22 22 22 21 21 20 19 19 18 17 17 17 17 17 17 17 17 17 18 18 17 17 16 16 16 16 16 16 16 16 16 16 17 17 17 17 18 18 18 19 19 19 20 20 20 21 21
24 23 23 23 23 23 24 24 25 25 24 24 24 25 26 26 27 28 28 28 28 28 28 27 27 26 26 26 25 25 25 25 25 24 24 24 23 23 23 22 22 21 21 20 20 19 19 18 18 17 17 18 18 18 18 18 18 18 18 17 17 17 17 17 16 16 16 16 17 17 17 17 17 17 18 18 18 19 19 20 20 21 21 21 21 21
23 23 22 23 23 24 24 25 25 25 25 25 25 26 26 27 28 28 28 28 28 27 27 27 26 26 25 25 25 25 25 25 25 24 24 24 23 23 23 22 22 21 21 20 20 19 19 19 19 18 18 18 18 19 19 19 18 18 18 18 17 17 17 17 17 17 17 17 17 17 17 18 18 18 18 19 19 20 21 21 21 22 22 22 21 21
22 22 22 23 23 24 24 25 25 25 25 25 26 26 27 27 28 28 28 27 27 27 27 26 26 25 25 25 25 25 25 25 25 25 24 24 23 23 22 22 21 21 21 20 20 20 20 20 20 20 20 19 19 19 19 19 19 18 18 18 18 18 17 17 17 17 17 17 17 18 18 18 18 19 19 20 20 21 21 22 22 22 22 21 21 20
22 22 23 24 24 24 25 25 25 25 25 25 26 26 27 27 28 28 27 27 26 26 26 25 25 25 25 25 25 25 25 25 25 25 24 24 23 23 22 22 21 21 21 21 20 20 20 20 21 21 21 20 20 20 20 19 19 19 19 18 18 18 18 18 18 18 18 18 18 18 18 19 19 20 20 21 21 22 22 22 22 22 21 21 20 20
23 23 24 24 25 25 25 25 25 26 26 26 26 26 27 27 27 27 27 26 26 26 25 25 25 24 25 25 25 25 25 25 25 24 24 23 23 22 22 22 21 21 21 21 21 21 21 21 21 22 22 21 21 20 20 20 20 19 19 19 19 18 18 18 18 18 18 18 18 19 19 20 20 20 21 21 22 22 22 22 22 21 21 20 19 19
23 24 24 25 25 26 26 26 26 26 26 26 26 26 27 27 27 26 26 26 26 25 25 25 25 25 25 25 25 25 25 24 24 24 23 23 23 22 22 21 21 21 21 22 22 22 22 21 21 22 22 22 21 21 20 20 20 19 19 19 19 19 18 18 18 18 18 18 19 19 20 20 21 21 21 21 22 22 22 22 21 21 20 19 19 18
Wind_Direction
278 277 277 276 275 273 270 268 268 271 274 277 278 279 279 279 279 278 278 278 278 277 277 277 276 276 276 275 274 272 271 269 267 265 263 261 262 266 271 274 275 275 274 272 271 272 274 276 276 276 277 277 277 275 273 273 276 278 279 278 278 280 284 288 290 289 287 284 280 277 274 271 266 260 254 249 246 244 244 243 243 242 241 241 241 241
276 276 275 274 271 269 266 266 267 270 273 275 276 276 276 276 276 276 276 277 276 276 276 276 275 275 275 275 274 273 272 271 270 268 264 260 260 264 269 274 278 279 280 279 278 277 277 276 276 277 278 278 277 275 272 271 274 277 278 278 279 281 286 290 291 289 284 280 276 273 270 266 262 257 252 247 244 242 241 240 240 239 239 239 240 239
276 275 274 272 270 267 267 269 270 271 273 275 275 275 274 274 274 275 275 275 275 275 275 275 275 275 274 274 274 273 273 273 272 270 265 261 258 259 263 269 275 279 281 282 281 280 278 277 277 278 279 279 278 274 271 270 273 276 277 278 279 283 290 293 293 288 282 276 272 268 265 262 258 254 250 246 242 240 238 237 237 237 237 238 238 238
277 276 274 273 271 269 270 271 272 273 273 274 273 273 273 273 273 273 273 273 273 273 274 274 274 274 273 273 272 272 271 272 272 271 268 263 259 258 261 265 269 273 276 278 278 277 276 276 277 278 279 280 278 275 271 270 272 275 276 277 280 286 292 294 292 286 279 274 269 265 261 258 254 251 247 243 240 238 236 235 235 235 236 237 237 237
278 277 275 274 272 272 272 273 273 274 274 273 273 273 273 272 272 272 272 272 272 272 273 273 273 273 272 271 270 269 268 268 268 268 269 267 266 265 266 268 270 271 272 272 273 274 274 275 277 278 279 279 278 275 271 271 272 274 275 276 280 286 291 291 288 283 277 272 267 263 259 255 251 247 243 241 238 235 234 233 233 234 235 236 236 236
277 276 275 274 274 273 274 274 274 274 274 274 273 273 272 272 271 271 271 271 271 272 272 272 272 271 270 269 268 266 265 264 264 267 270 271 272 271 271 271 270 269 269 270 271 273 275 278 279 280 279 278 276 274 272 271 271 272 274 276 281 285 287 287 284 279 274 270 266 262 257 252 248 244 241 238 235 233 232 232 232 233 234 235 235 236
276 274 273 273 274 274 274 274 274 274 274 274 273 272 272 271 270 270 270 270 270 271 271 271 271 270 269 268 267 265 264 264 265 268 270 270 270 268 267 267 267 268 269 272 274 277 279 282 284 283 281 278 276 274 272 270 269 270 273 277 280 283 284 282 280 275 271 268 264 260 255 250 245 241 238 235 233 232 231 231 232 233 234 235 235 236
273 272 272 272 273 273 273 273 273 273 272 272 272 271 271 270 270 270 270 270 270 270 270 270 270 269 268 268 267 267 265 264 263 264 264 264 264 263 263 264 265 268 271 275 278 280 282 285 286 285 282 278 276 273 270 268 268 270 273 276 279 280 280 279 276 272 268 265 261 257 253 247 243 238 236 233 231 231 230 230 231 232 234 235 236 237
270 270 270 270 270 270 271 271 270 270 270 270 270 270 269 270 270 270 270 271 271 271 271 271 270 269 269 269 269 269 267 262 256 254 256 258 259 261 262 264 266 269 272 275 278 280 282 283 284 283 280 276 272 269 267 267 268 271 274 276 278 278 277 275 272 268 264 261 257 253 249 244 239 236 233 231 230 230 230 230 232 233 234 236 238 238
269 268 268 268 267 267 268 268 268 267 267 267 267 268 268 269 270 270 271 272 272 272 272 272 272 271 270 269 269 269 267 261 254 251 252 254 257 259 261 264 266 269 272 274 276 278 279 280 281 279 275 271 267 266 265 267 269 272 274 276 276 275 273 271 267 263 259 256 252 248 243 239 235 232 230 229 228 229 229 230 232 233 236 238 239 239
268 267 266 266 266 265 266 266 266 266 265 264 265 266 267 268 269 270 270 270 270 270 271 271 271 270 269 268 268 267 265 261 257 253 253 254 256 258 260 263 265 268 271 273 275 276 277 278 277 275 271 266 264 264 265 267 270 272 274 274 273 272 269 266 262 259 255 252 247 242 238 233 229 226 226 226 226 227 228 230 232 235 237 238 239 240
267 266 265 264 264 264 265 265 265 265 264 264 264 265 267 268 269 269 270 269 269 268 268 268 268 267 267 266 265 264 262 260 258 257 256 257 258 259 261 263 265 268 270 272 273 274 275 275 274 271 267 264 263 263 265 268 270 272 273 272 270 268 264 260 256 253 251 248 243 238 233 228 224 221 221 222 223 225 228 231 233 235 237 239 240 240
265 264 263 263 263 264 264 265 265 264 264 264 264 266 267 268 268 269 270 270 270 270 270 269 269 268 268 269 268 268 267 265 264 263 263 263 263 263 264 266 267 269 270 272 272 272 272 272 271 268 264 262 262 263 266 268 271 272 271 269 266 262 257 252 248 246 244 242 238 234 229 225 221 218 218 219 221 224 228 231 234 236 237 238 239 240
263 263 262 262 262 263 263 264 264 264 264 264 265 265 266 267 268 269 270 272 273 273 273 274 273 273 273 273 274 274 273 272 271 270 269 268 268 269 269 269 270 270 271 271 270 270 270 269 268 265 263 261 262 264 266 269 270 270 268 265 261 255 249 243 240 240 239 237 233 230 226 223 219 217 217 218 221 225 229 233 235 236 237 238 239 240
262 261 261 261 262 262 263 263 263 263 263 264 265 265 266 267 268 270 271 272 272 273 274 274 274 274 273 273 274 274 273 272 270 269 269 269 270 270 270 270 270 270 269 268 268 267 267 267 265 264 262 262 263 264 267 268 268 266 264 259 254 248 241 238 237 237 236 233 229 226 223 221 218 217 216 218 221 227 232 234 235 236 237 237 239 240
260 260 260 261 261 262 262 262 262 262 263 264 265 265 267 268 269 270 270 270 271 271 271 270 270 270 270 270 270 270 269 267 266 265 266 267 268 269 269 269 269 268 267 266 266 265 265 264 263 262 262 262 263 265 266 266 265 261 257 251 246 240 235 234 235 235 233 229 226 223 221 219 217 217 217 219 224 228 233 234 235 235 236 237 238 240
258 258 259 260 261 261 261 261 261 262 263 264 265 266 267 268 269 269 269 269 269 269 269 268 269 268 267 266 266 266 266 264 263 263 264 265 266 267 267 267 267 266 265 264 264 263 263 262 262 261 261 261 263 263 264 263 259 254 248 242 237 233 231 231 233 232 229 225 222 220 219 217 217 217 218 221 225 230 232 234 234 235 236 237 239 240
257 257 259 260 261 261 261 260 261 261 262 264 265 266 267 267 268 268 268 268 268 268 268 268 269 269 269 266 265 266 265 263 262 262 262 263 264 265 265 265 265 264 264 263 263 262 261 261 260 259 259 260 261 261 261 258 253 246 240 235 231 229 229 230 230 229 225 222 220 219 218 217 217 218 220 223 226 229 232 233 234 234 235 237 239 240
256 257 258 259 260 260 260 260 260 261 263 264 265 266 266 266 267 267 267 267 268 268 268 268 268 268 268 268 267 267 266 264 263 262 262 262 263 263 264 263 263 263 263 262 262 261 260 259 258 258 257 258 259 258 257 252 245 238 233 230 228 228 228 229 228 227 224 221 220 219 219 219 219 220 222 223 226 228 230 231 233 234 236 238 239 240
255 256 257 258 259 260 260 260 261 262 263 264 265 265 265 266 266 267 267 267 267 267 267 267 268 268 268 268 267 267 266 264 263 262 262 262 263 263 263 263 263 262 262 261 261 259 258 257 256 256 256 256 256 255 251 245 238 232 229 228 228 229 229 229 229 229 229 228 226 225 223 221 222 222 223 224 225 226 228 230 232 234 236 238 239 241
254 255 256 257 258 259 260 261 261 262 263 264 264 265 265 266 266 266 267 267 267 267 267 267 267 268 268 267 267 266 265 264 263 263 263 263 263 263 264 263 263 262 261 260 259 258 257 255 255 254 254 254 254 251 245 238 232 229 228 228 229 229 230 231 232 235 237 238 236 232 227 225 224 224 224 224 224 225 227 230 232 234 236 238 240 241
254 255 256 257 258 259 260 261 261 262 263 264 265 265 266 266 266 266 266 266 266 266 266 266 267 267 267 266 266 265 265 264 263 262 262 261 262 263 263 263 263 262 260 259 258 257 255 254 254 253 253 253 251 246 239 232 228 227 228 229 229 230 230 231 233 235 238 240 239 235 230 227 226 226 225 225 224 225 227 229 232 234 237 238 240 241
254 255 256 257 258 259 260 261 262 262 263 264 265 265 265 265 265 265 265 265 265 265 266 266 267 266 266 265 264 264 264 263 262 260 260 259 260 261 262 262 262 260 259 258 256 255 254 253 253 253 252 251 247 240 232 226 225 226 228 229 229 229 230 230 231 233 236 238 237 233 230 228 227 226 226 225 225 226 227 229 232 234 237 239 240 242
253 255 256 257 258 260 261 262 262 263 263 264 264 264 264 264 264 264 264 265 265 266 266 266 266 265 265 264 263 262 262 262 261 259 258 258 259 260 260 260 259 258 257 255 254 253 253 253 252 251 250 247 241 233 225 222 223 225 228 229 229 228 228 228 229 231 232 233 231 229 228 227 226 226 225 225 225 226 227 230 232 235 237 239 241 242
253 255 256 257 259 260 261 262 263 263 263 263 263 263 263 264 264 264 265 265 266 266 266 266 265 264 264 264 263 262 261 261 260 258 257 257 257 258 258 257 256 255 254 252 251 251 251 251 250 248 245 240 233 225 220 220 223 226 228 228 227 226 226 226 227 228 229 228 227 225 225 225 225 225 225 225 226 226 228 230 232 234 237 239 241 242
253 254 256 258 259 260 261 262 263 263 263 263 263 263 263 264 264 265 265 266 267 266 265 264 264 263 263 262 261 260 260 259 258 257 256 255 255 254 254 254 252 251 250 248 248 247 247 246 244 240 235 229 223 219 218 220 224 227 227 226 224 223 223 224 225 225 225 224 223 223 223 223 223 224 224 225 225 227 228 230 232 234 237 239 241 242
253 254 256 258 259 260 261 262 262 263 263 263 263 263 264 264 265 265 266 267 267 266 265 264 264 263 262 261 259 258 258 257 256 255 254 252 251 250 249 249 248 246 244 243 243 242 240 237 232 226 220 216 214 214 216 220 224 226 224 222 221 220 221 221 222 221 221 221 221 221 221 221 222 222 223 224 225 227 228 230 232 234 236 238 240 242
253 254 256 257 259 260 261 262 262 263 263 263 264 264 264 265 265 265 266 266 265 264 263 263 262 261 260 259 257 256 254 253 252 251 250 247 245 244 244 244 243 241 238 236 235 233 228 222 215 210 207 206 207 210 214 219 221 221 219 217 217 217 218 218 218 218 219 219 219 220 220 221 221 222 223 224 225 227 228 230 232 234 236 238 239 241
252 254 256 257 259 260 261 262 262 263 263 264 264 264 265 265 265 265 265 264 263 262 261 261 260 259 257 256 254 252 250 249 248 246 244 241 239 238 238 238 236 233 230 226 223 218 211 206 202 201 201 202 205 209 213 216 216 215 214 214 214 215 215 216 216 217 217 218 218 219 220 220 221 222 223 224 225 226 228 230 231 233 235 237 239 241
252 254 256 258 259 260 261 262 262 263 263 264 264 264 265 265 264 264 263 262 261 260 259 258 257 256 253 251 248 247 246 245 244 241 238 235 233 233 232 230 227 222 218 214 210 205 201 199 198 199 201 203 206 210 212 213 212 211 211 212 213 214 214 215 215 216 216 217 218 219 219 220 220 221 222 223 225 226 228 230 232 234 236 238 239 242
252 254 256 257 259 259 260 261 262 262 263 264 264 264 264 263 263 262 261 260 259 258 256 255 254 252 249 246 243 242 242 241 239 235 231 228 226 225 224 220 214 209 206 203 201 200 199 199 199 200 202 205 208 210 211 211 210 210 211 212 213 213 214 214 215 216 217 217 218 218 219 219 220 221 222 224 225 227 229 231 233 235 237 239 241 243
252 254 256 257 258 259 260 260 261 262 262 263 263 263 263 262 261 260 259 258 256 255 253 252 249 246 243 240 238 237 235 234 231 227 223 219 217 215 213 208 203 200 199 197 197 198 199 200 201 202 204 206 208 209 210 210 210 210 210 212 213 214 214 215 215 216 216 217 218 218 219 219 220 222 224 225 227 229 232 234 236 238 240 242 244 245
253 254 256 257 257 258 259 260 260 261 262 262 262 261 261 260 259 258 257 255 254 252 249 247 243 239 236 234 231 229 226 224 222 218 213 209 207 206 203 200 198 197 197 196 196 196 197 199 201 203 205 207 208 209 209 210 210 210 211 212 213 214 215 215 216 216 217 217 218 219 220 221 222 224 226 228 231 233 235 237 239 241 243 244 246 247
252 254 255 256 257 258 258 259 260 260 260 260 260 259 259 258 257 256 254 253 250 248 244 240 235 231 228 226 224 221 219 217 214 209 204 202 201 201 199 198 197 197 197 197 197 196 197 199 201 203 205 207 208 208 209 209 210 210 211 212 213 213 214 215 216 217 218 219 220 222 223 225 226 228 230 232 234 235 237 239 241 242 244 245 246 248
252 253 254 255 256 257 258 258 259 259 259 259 258 258 257 256 254 253 251 248 245 240 235 231 226 222 220 217 215 214 213 212 209 203 199 199 200 200 199 199 199 199 199 199 199 199 200 201 202 204 205 207 208 208 209 209 210 210 211 212 212 213 215 216 218 219 221 223 225 226 228 229 230 231 233 234 235 237 238 239 241 242 244 245 246 248
251 252 253 254 255 256 257 257 258 257 257 257 256 255 254 253 251 248 245 241 236 230 225 220 217 214 211 208 206 207 208 207 204 199 197 198 200 201 201 201 201 201 201 201 200 201 201 202 204 205 206 207 207 207 208 209 209 210 210 212 213 215 217 219 222 224 226 228 229 231 232 233 233 234 235 236 236 237 238 239 241 242 244 245 247 249
249 251 253 254 255 255 256 256 256 256 255 254 253 252 251 248 245 241 237 231 226 220 215 211 209 206 203 201 201 202 203 202 200 197 197 199 200 202 202 202 202 202 203 202 202 202 203 203 204 205 206 206 206 206 206 208 209 210 211 213 216 219 222 225 227 229 230 232 233 234 235 235 235 235 236 236 237 238 239 240 242 244 246 248 250 251
248 250 251 253 254 254 254 254 254 253 252 251 250 248 246 242 238 233 228 222 217 212 208 206 203 201 200 199 200 200 200 198 197 196 197 198 200 201 202 203 203 204 204 204 203 204 204 204 204 204 204 204 205 205 206 208 210 213 216 218 221 224 227 230 232 233 234 235 235 236 236 236 236 237 237 238 238 240 241 243 245 247 249 251 253 255
246 248 250 251 252 252 252 252 251 250 249 247 245 243 240 236 231 226 220 215 210 206 204 202 200 199 199 199 199 199 198 197 196 197 198 200 201 202 203 203 204 205 205 205 204 204 204 203 203 203 203 203 205 206 209 211 214 218 221 224 226 228 231 233 235 236 236 237 237 237 237 237 237 238 239 240 241 242 245 247 249 251 253 255 256 257
244 247 248 249 250 250 249 249 247 246 244 242 240 238 234 230 225 220 214 210 206 203 201 199 198 198 198 199 199 199 199 198 199 200 202 204 205 205 205 204 205 205 205 204 204 204 204 203 203 203 204 205 207 209 213 216 219 223 226 228 230 232 234 235 237 237 238 238 237 237 238 238 239 239 241 242 244 246 248 250 252 254 256 258 259 260
243 245 246 247 247 247 246 245 244 242 240 238 235 233 229 225 220 215 210 206 204 202 200 199 199 199 199 199 200 200 201 202 204 206 208 209 209 209 207 206 205 205 204 203 203 203 203 203 203 205 206 209 211 214 218 221 224 226 229 230 232 235 236 238 238 239 238 238 238 238 238 239 241 242 244 245 247 249 251 253 255 257 258 259 260 261
240 242 244 244 244 244 243 241 240 238 236 234 231 228 224 220 215 210 207 204 202 201 201 201 202 202 202 202 202 202 203 205 208 210 211 212 211 210 208 207 205 204 203 203 202 202 203 203 205 206 209 213 216 219 221 224 227 229 231 233 235 237 239 240 240 239 239 239 239 239 240 241 243 245 247 248 250 252 253 255 256 258 259 260 261 262
238 240 241 242 242 240 239 237 236 234 232 230 227 224 220 216 212 208 205 203 202 202 202 203 204 205 205 205 205 205 205 207 209 211 212 212 212 211 209 207 206 205 204 203 203 203 204 205 207 209 212 216 219 221 224 227 230 232 234 237 238 239 240 240 240 240 239 239 240 241 242 244 246 247 249 251 252 253 255 256 258 259 260 261 262 263
236 238 239 239 238 237 235 233 232 231 229 226 223 220 217 213 210 206 204 203 203 203 204 206 207 208 208 208 208 207 207 208 209 211 211 211 211 210 209 207 206 205 205 204 205 205 207 208 210 212 215 218 221 223 226 229 232 235 237 239 240 240 239 239 239 240 240 241 242 243 245 247 248 250 252 253 254 256 257 258 259 260 261 262 263 265
233 235 237 236 235 233 231 230 229 228 225 223 219 217 214 211 208 206 204 204 204 205 206 208 209 210 210 211 211 210 210 209 209 209 209 209 209 209 209 208 207 207 207 207 207 208 210 211 212 215 218 220 223 226 230 233 235 238 239 240 240 239 238 239 239 240 241 243 245 246 248 249 251 252 254 255 257 258 259 260 261 262 263 264 265 266
231 233 235 234 232 230 229 228 226 224 222 219 216 214 212 209 207 206 205 205 206 207 208 209 210 211 211 212 212 211 211 210 209 209 208 208 208 209 209 209 209 209 209 209 210 211 213 214 215 218 220 224 227 231 234 236 238 239 239 239 238 238 238 239 240 241 243 245 247 249 250 252 253 254 256 258 259 260 261 262 263 264 265 265 266 266
230 232 232 231 229 228 226 225 223 221 218 216 213 212 210 208 207 206 206 206 207 208 209 210 210 211 211 211 211 210 210 209 209 208 208 207 208 209 209 210 210 210 211 211 212 214 215 217 219 221 224 228 231 234 237 239 239 239 238 237 237 237 238 239 241 243 245 247 249 250 252 254 255 257 258 260 261 263 263 264 265 265 266 266 266 265
228 229 229 228 226 225 223 222 220 218 215 213 211 210 209 208 207 207 207 207 208 209 209 210 210 209 209 209 208 208 208 207 207 207 207 208 208 209 210 211 212 212 213 213 214 215 217 219 222 226 229 232 234 237 238 239 239 237 236 235 235 236 238 240 242 245 247 248 250 252 254 255 257 258 260 262 263 264 265 265 265 265 265 265 264 263
224 225 225 224 223 222 220 219 217 214 212 211 210 209 208 208 207 207 207 208 208 209 209 209 208 208 207 207 206 206 206 206 206 207 208 209 210 211 212 213 214 214 215 215 216 217 219 223 227 230 234 236 237 238 238 238 237 236 234 234 234 236 238 241 243 246 248 250 251 253 255 257 258 260 261 263 264 264 265 264 264 263 263 262 261 259
222 222 222 221 220 218 217 215 213 211 210 209 208 208 207 207 207 207 207 207 208 208 207 207 206 205 205 205 205 205 205 206 207 208 209 210 211 213 213 215 215 216 216 217 219 221 223 226 230 235 238 239 239 238 237 236 235 234 233 233 235 237 239 241 244 246 249 251 253 256 258 259 260 261 262 263 264 264 263 263 262 261 259 258 256 255
220 220 220 219 217 215 213 211 209 208 208 207 207 207 207 207 207 208 207 207 207 207 206 205 205 204 203 203 203 204 205 206 207 209 210 212 213 214 215 216 217 218 219 221 223 226 228 231 234 236 239 240 240 238 235 234 232 232 233 234 236 238 240 243 245 247 250 253 255 258 260 261 262 263 263 263 263 262 262 261 259 257 256 254 253 252
Height
3063 3063 3063 3063 3064 3063 3063 3064 3065 3065 3065 3066 3066 3066 3065 3065 3064 3064 3064 3064 3064 3063 3063 3063 3063 3063 3063 3063 3063 3063 3064 3064 3064 3064 3064 3064 3065 3065 3065 3066 3066 3066 3065 3065 3065 3066 3066 3066 3066 3066 3066 3066 3066 3066 3067 3067 3067 3067 3067 3067 3067 3068 3067 3067 3067 3066 3066 3066 3065 3065 3065 3065 3065 3065 3065 3065 3065 3066 3067 3067 3068 3068 3068 3069 3070 3070
3060 3060 3060 3060 3061 3061 3060 3061 3062 3063 3063 3063 3063 3063 3063 3063 3062 3062 3062 3062 3061 3061 3061 3061 3061 3061 3061 3061 3061 3061 3061 3061 3062 3062 3062 3062 3063 3063 3063 3063 3064 3063 3063 3063 3063 3064 3064 3064 3064 3064 3064 3064 3064 3064 3065 3065 3065 3065 3065 3065 3065 3065 3065 3065 3065 3065 3064 3064 3064 3064 3064 3064 3064 3063 3063 3063 3064 3064 3065 3066 3066 3067 3067 3068 3068 3069
3057 3057 3057 3058 3058 3058 3058 3059 3060 3060 3060 3060 3061 3061 3061 3060 3060 3060 3059 3059 3059 3059 3058 3058 3058 3058 3058 3058 3058 3059 3059 3059 3059 3059 3060 3060 3060 3061 3061 3061 3062 3062 3062 3062 3062 3062 3062 3062 3062 3062 3062 3062 3062 3063 3063 3063 3063 3063 3063 3063 3063 3063 3063 3063 3063 3063 3063 3062 3062 3062 3062 3062 3062 3062 3062 3062 3063 3063 3064 3064 3065 3066 3066 3067 3067 3068
3055 3054 3055 3056 3056 3057 3057 3057 3058 3058 3058 3058 3058 3058 3058 3058 3058 3057 3057 3057 3057 3056 3056 3056 3056 3056 3056 3056 3056 3057 3057 3057 3057 3058 3058 3058 3058 3058 3058 3059 3059 3059 3060 3060 3060 3060 3060 3060 3060 3060 3060 3060 3060 3060 3061 3061 3060 3061 3061 3061 3061 3061 3061 3061 3061 3061 3060 3060 3060 3060 3060 3061 3061 3061 3061 3061 3061 3062 3063 3063 3064 3064 3065 3066 3066 3067
3052 3052 3052 3053 3054 3054 3054 3055 3055 3055 3055 3055 3055 3055 3055 3055 3055 3055 3054 3054 3054 3054 3054 3054 3054 3054 3054 3054 3054 3054 3055 3055 3055 3056 3056 3056 3056 3056 3057 3057 3057 3058 3058 3058 3058 3058 3058 3058 3058 3058 3058 3058 3058 3058 3058 3058 3058 3058 3059 3059 3059 3059 3059 3059 3059 3059 3058 3058 3058 3058 3058 3059 3059 3059 3059 3060 3060 3061 3061 3062 3063 3063 3064 3064 3065 3066
3049 3049 3050 3051 3051 3052 3052 3053 3053 3053 3053 3053 3053 3053 3053 3053 3053 3052 3052 3052 3052 3052 3052 3052 3052 3052 3052 3052 3052 3052 3053 3053 3053 3053 3053 3054 3054 3054 3055 3055 3055 3056 3056 3056 3056 3056 3056 3055 3056 3056 3056 3056 3056 3056 3056 3056 3057 3057 3057 3057 3057 3057 3057 3057 3057 3057 3057 3057 3056 3057 3057 3057 3058 3058 3058 3058 3059 3059 3060 3061 3062 3062 3063 3063 3064 3064
3046 3047 3048 3048 3048 3049 3050 3050 3050 3050 3050 3050 3050 3050 3050 3050 3050 3050 3050 3050 3049 3049 3049 3049 3049 3049 3049 3049 3049 3050 3050 3051 3051 3051 3052 3052 3052 3053 3053 3053 3053 3054 3053 3053 3053 3053 3053 3053 3053 3053 3053 3054 3054 3054 3054 3054 3055 3055 3055 3055 3055 3055 3055 3055 3055 3055 3055 3055 3055 3055 3055 3056 3056 3057 3057 3057 3058 3058 3059 3060 3060 3061 3062 3062 3063 3063
3044 3044 3045 3046 3046 3046 3047 3048 3048 3048 3048 3048 3047 3047 3048 3048 3048 3048 3047 3047 3047 3047 3047 3047 3047 3047 3047 3047 3047 3047 3048 3048 3049 3049 3050 3050 3051 3051 3051 3051 3051 3052 3051 3051 3051 3051 3051 3051 3051 3051 3052 3052 3052 3052 3052 3053 3053 3053 3053 3053 3053 3053 3053 3053 3053 3053 3053 3053 3053 3053 3054 3054 3055 3055 3055 3056 3057 3057 3058 3059 3059 3060 3060 3061 3062 3063
3042 3042 3042 3043 3043 3044 3044 3044 3045 3046 3046 3045 3045 3045 3045 3045 3045 3045 3045 3045 3045 3045 3045 3045 3045 3045 3045 3045 3045 3045 3045 3046 3047 3048 3048 3048 3048 3048 3048 3048 3049 3049 3049 3049 3049 3049 3048 3049 3049 3049 3049 3049 3050 3050 3050 3051 3051 3051 3051 3052 3052 3051 3051 3051 3051 3051 3051 3051 3052 3052 3053 3053 3053 3054 3054 3055 3055 3056 3057 3058 3058 3059 3059 3060 3061 3061
3039 3039 3039 3039 3040 3041 3042 3042 3042 3043 3043 3043 3042 3042 3042 3043 3043 3042 3042 3042 3042 3043 3043 3042 3042 3042 3043 3043 3043 3043 3043 3044 3045 3045 3046 3046 3046 3046 3046 3046 3046 3047 3047 3047 3047 3047 3046 3046 3047 3047 3047 3047 3048 3048 3048 3048 3049 3049 3049 3049 3049 3049 3049 3049 3049 3049 3049 3050 3050 3050 3051 3052 3052 3053 3053 3054 3054 3055 3056 3057 3057 3058 3058 3059 3060 3060
3036 3036 3037 3037 3037 3038 3039 3039 3039 3040 3040 3040 3040 3040 3040 3040 3040 3040 3040 3040 3040 3040 3040 3040 3040 3040 3040 3040 3040 3041 3041 3042 3042 3043 3043 3043 3043 3043 3043 3043 3044 3044 3045 3045 3044 3044 3044 3044 3044 3045 3045 3045 3046 3046 3046 3046 3047 3047 3047 3047 3047 3047 3047 3047 3047 3048 3048 3048 3048 3049 3049 3050 3051 3051 3052 3053 3053 3054 3055 3056 3056 3057 3058 3058 3058 3059
3033 3033 3034 3034 3034 3035 3036 3036 3037 3037 3037 3037 3037 3037 3037 3038 3037 3037 3037 3037 3037 3038 3038 3038 3038 3038 3038 3038 3038 3038 3039 3039 3040 3040 3040 3040 3040 3040 3040 3041 3042 3042 3042 3042 3042 3042 3042 3042 3042 3043 3043 3043 3043 3044 3044 3044 3045 3045 3045 3045 3045 3045 3045 3045 3045 3046 3046 3047 3047 3048 3048 3049 3049 3050 3051 3051 3052 3053 3054 3054 3055 3056 3056 3057 3058 3058
3030 3031 3031 3031 3032 3032 3033 3033 3034 3034 3034 3034 3035 3035 3034 3034 3034 3034 3034 3034 3034 3034 3035 3035 3035 3035 3035 3035 3035 3035 3036 3037 3037 3037 3038 3038 3038 3038 3038 3038 3039 3040 3040 3040 3040 3039 3039 3039 3040 3040 3041 3041 3041 3042 3042 3042 3043 3043 3043 3043 3043 3043 3043 3043 3044 3044 3045 3046 3046 3046 3047 3048 3048 3048 3049 3050 3051 3052 3053 3053 3054 3054 3055 3056 3056 3057
3028 3028 3028 3028 3029 3029 3030 3031 3031 3031 3031 3032 3032 3032 3031 3031 3031 3031 3031 3031 3031 3031 3032 3031 3031 3032 3032 3032 3032 3032 3033 3033 3034 3034 3035 3035 3035 3035 3035 3036 3037 3037 3038 3038 3037 3037 3037 3037 3038 3038 3038 3039 3039 3039 3040 3040 3040 3040 3041 3041 3041 3041 3041 3042 3042 3043 3043 3044 3045 3045 3046 3046 3047 3047 3048 3049 3049 3050 3051 3052 3053 3053 3054 3054 3055 3056
3024 3025 3025 3025 3026 3027 3028 3028 3028 3028 3028 3029 3029 3028 3028 3028 3028 3029 3029 3029 3029 3029 3029 3029 3029 3029 3029 3029 3029 3030 3030 3031 3031 3032 3032 3032 3032 3032 3033 3033 3034 3034 3035 3035 3035 3035 3035 3035 3035 3036 3036 3037 3037 3037 3038 3038 3038 3038 3038 3039 3039 3039 3040 3040 3041 3042 3042 3043 3043 3044 3044 3045 3046 3046 3047 3048 3048 3049 3050 3051 3052 3052 3053 3053 3054 3054
3021 3022 3022 3022 3023 3023 3024 3025 3025 3025 3026 3026 3026 3025 3025 3025 3026 3026 3026 3026 3026 3026 3026 3026 3026 3026 3026 3027 3027 3028 3028 3028 3029 3029 3029 3029 3029 3029 3030 3030 3031 3032 3032 3033 3033 3033 3033 3033 3033 3034 3034 3034 3034 3035 3035 3036 3036 3036 3037 3037 3037 3038 3038 3039 3040 3040 3041 3041 3042 3043 3043 3044 3044 3045 3045 3046 3047 3048 3049 3050 3050 3051 3052 3052 3053 3053
3018 3018 3019 3019 3020 3020 3021 3022 3022 3022 3023 3023 3023 3023 3023 3023 3023 3023 3023 3023 3023 3023 3023 3023 3023 3023 3023 3024 3024 3025 3026 3026 3026 3026 3027 3027 3027 3027 3027 3028 3028 3029 3029 3030 3030 3030 3030 3031 3031 3031 3032 3032 3032 3033 3033 3033 3034 3034 3035 3035 3036 3036 3037 3038 3039 3039 3040 3040 3041 3042 3042 3043 3043 3044 3044 3045 3046 3047 3048 3048 3049 3050 3050 3051 3052 3052
3015 3015 3016 3016 3017 3017 3018 3019 3019 3019 3020 3020 3020 3020 3020 3020 3020 3020 3020 3020 3020 3020 3020 3020 3020 3020 3020 3021 3021 3022 3023 3023 3023 3023 3024 3024 3024 3024 3024 3025 3025 3026 3027 3027 3027 3028 3028 3028 3029 3029 3029 3030 3030 3031 3031 3032 3032 3033 3033 3034 3034 3035 3036 3037 3037 3038 3038 3039 3040 3040 3041 3041 3042 3043 3043 3044 3045 3046 3047 3047 3048 3048 3049 3050 3050 3051
3012 3013 3013 3013 3014 3014 3014 3015 3016 3017 3017 3017 3017 3017 3017 3017 3017 3017 3017 3017 3017 3017 3017 3017 3017 3018 3018 3018 3018 3019 3020 3020 3020 3020 3021 3021 3021 3021 3021 3022 3023 3023 3024 3024 3025 3025 3025 3026 3026 3027 3027 3028 3028 3028 3029 3030 3030 3031 3032 3032 3033 3034 3034 3035 3036 3037 3037 3038 3038 3039 3040 3040 3041 3041 3042 3043 3044 3044 3045 3046 3047 3048 3048 3049 3049 3050
3008 3009 3010 3010 3011 3011 3011 3012 3013 3014 3014 3014 3014 3014 3013 3013 3013 3014 3014 3014 3014 3014 3014 3014 3014 3014 3015 3015 3016 3016 3017 3017 3017 3017 3018 3018 3018 3018 3018 3019 3020 3021 3021 3022 3022 3023 3023 3023 3024 3024 3025 3025 3026 3027 3027 3028 3028 3029 3030 3031 3032 3032 3033 3034 3034 3035 3036 3037 3037 3038 3038 3039 3039 3040 3041 3042 3043 3043 3044 3045 3046 3046 3047 3048 3048 3049
3005 3006 3007 3007 3007 3007 3008 3009 3010 3011 3011 3011 3011 3010 3010 3010 3011 3011 3011 3011 3011 3011 3011 3011 3011 3011 3012 3012 3013 3013 3013 3013 3013 3014 3014 3015 3015 3015 3016 3016 3017 3018 3019 3019 3020 3020 3020 3021 3022 3022 3023 3023 3024 3024 3025 3026 3027 3028 3028 3029 3030 3031 3032 3032 3033 3033 3035 3036 3036 3037 3037 3038 3038 3039 3040 3041 3041 3042 3043 3043 3044 3045 3046 3046 3047 3048
3002 3003 3003 3004 3004 3004 3005 3006 3007 3008 3008 3008 3008 3007 3007 3007 3007 3007 3008 3008 3008 3008 3008 3008 3008 3008 3009 3009 3010 3010 3010 3010 3011 3011 3012 3013 3013 3013 3013 3014 3015 3015 3016 3017 3017 3018 3018 3018 3019 3020 3021 3021 3022 3023 3023 3024 3025 3026 3027 3028 3028 3029 3030 3031 3032 3033 3034 3035 3035 3036 3036 3037 3038 3038 3039 3039 3040 3041 3042 3042 3043 3044 3044 3045 3046 3046
2999 2999 3000 3000 3001 3001 3002 3003 3003 3004 3005 3005 3004 3004 3004 3004 3004 3004 3004 3004 3004 3004 3004 3005 3005 3005 3006 3007 3007 3007 3007 3008 3008 3008 3009 3010 3010 3011 3011 3012 3012 3013 3014 3014 3015 3015 3016 3016 3017 3018 3018 3019 3020 3021 3022 3023 3023 3025 3026 3026 3027 3028 3029 3029 3031 3032 3033 3034 3034 3035 3035 3036 3036 3037 3038 3038 3039 3039 3040 3041 3042 3043 3043 3044 3044 3045
2996 2996 2997 2997 2998 2998 2999 2999 3000 3001 3001 3001 3001 3001 3001 3001 3000 3000 3001 3001 3001 3001 3002 3002 3002 3003 3003 3003 3004 3004 3004 3004 3005 3005 3006 3007 3008 3008 3008 3009 3010 3010 3011 3012 3013 3013 3013 3014 3015 3015 3016 3017 3018 3018 3020 3021 3022 3023 3024 3025 3026 3027 3028 3028 3029 3031 3032 3032 3033 3033 3034 3035 3035 3036 3036 3037 3038 3038 3039 3040 3041 3041 3042 3043 3043 3044
2993 2993 2993 2994 2994 2995 2995 2996 2997 2997 2998 2998 2998 2997 2997 2997 2997 2997 2997 2998 2998 2998 2998 2999 2999 2999 3000 3000 3001 3001 3001 3002 3002 3003 3003 3005 3006 3006 3006 3007 3007 3008 3009 3010 3010 3011 3011 3012 3013 3013 3014 3015 3016 3017 3018 3019 3021 3022 3023 3023 3024 3025 3026 3027 3028 3029 3030 3031 3032 3032 3033 3033 3034 3035 3035 3036 3036 3037 3038 3038 3039 3040 3041 3041 3042 3043
2989 2990 2990 2991 2991 2992 2992 2993 2993 2993 2994 2994 2994 2994 2994 2994 2994 2994 2994 2994 2995 2995 2995 2996 2996 2996 2997 2998 2998 2998 2998 2999 2999 3000 3001 3002 3003 3004 3004 3004 3005 3006 3007 3008 3008 3008 3009 3010 3011 3012 3012 3013 3014 3015 3017 3018 3019 3020 3021 3022 3023 3024 3025 3026 3027 3028 3029 3029 3030 3031 3032 3032 3033 3033 3034 3035 3035 3036 3037 3038 3038 3039 3039 3040 3041 3041
2986 2986 2987 2987 2988 2988 2989 2989 2989 2990 2990 2990 2990 2990 2990 2990 2990 2990 2991 2991 2992 2992 2992 2993 2993 2993 2994 2995 2995 2995 2996 2996 2997 2998 2998 3000 3001 3001 3001 3002 3003 3004 3005 3006 3006 3007 3008 3008 3009 3010 3011 3012 3013 3014 3016 3017 3018 3019 3020 3021 3022 3023 3024 3025 3026 3027 3028 3028 3029 3030 3030 3031 3032 3032 3033 3033 3034 3035 3035 3036 3037 3038 3038 3039 3039 3040
2983 2983 2984 2984 2984 2985 2985 2986 2986 2986 2987 2987 2987 2987 2987 2987 2987 2987 2988 2988 2988 2988 2989 2989 2990 2991 2991 2992 2993 2993 2993 2993 2994 2995 2996 2998 2998 2999 2999 3000 3001 3002 3003 3003 3004 3005 3006 3007 3008 3009 3010 3011 3012 3013 3015 3016 3017 3018 3019 3020 3021 3022 3023 3023 3024 3025 3026 3027 3028 3028 3029 3030 3030 3031 3032 3032 3033 3034 3034 3035 3036 3036 3037 3038 3038 3038
2979 2980 2980 2981 2981 2982 2982 2982 2983 2983 2983 2983 2983 2983 2983 2983 2984 2984 2985 2985 2985 2986 2986 2987 2987 2988 2988 2989 2990 2990 2990 2991 2992 2993 2994 2995 2996 2997 2997 2998 2999 3000 3001 3002 3003 3004 3005 3006 3007 3008 3009 3010 3011 3012 3013 3015 3016 3017 3018 3018 3019 3020 3021 3022 3023 3024 3025 3026 3026 3027 3028 3028 3029 3030 3030 3031 3032 3033 3033 3034 3034 3035 3036 3036 3037 3037
2976 2977 2977 2978 2978 2978 2979 2979 2979 2979 2980 2980 2980 2980 2980 2981 2981 2981 2982 2982 2983 2983 2983 2984 2985 2985 2986 2987 2987 2988 2988 2988 2989 2991 2992 2993 2994 2994 2995 2996 2997 2998 2999 3000 3001 3003 3003 3005 3006 3007 3008 3009 3010 3011 3012 3013 3014 3015 3016 3017 3018 3019 3020 3021 3022 3023 3024 3024 3025 3026 3027 3027 3028 3029 3029 3030 3031 3031 3032 3033 3033 3034 3034 3035 3035 3036
2973 2974 2974 2975 2975 2975 2976 2976 2976 2976 2976 2976 2977 2977 2977 2978 2978 2979 2979 2979 2980 2980 2981 2982 2982 2983 2983 2984 2984 2985 2986 2987 2988 2989 2990 2991 2992 2993 2993 2995 2996 2997 2998 2999 3000 3001 3003 3004 3005 3006 3007 3008 3009 3010 3011 3012 3013 3014 3015 3016 3017 3018 3019 3020 3021 3022 3023 3023 3024 3025 3025 3026 3027 3028 3028 3029 3029 3030 3031 3031 3032 3033 3033 3033 3034 3035
2970 2971 2971 2972 2972 2972 2973 2973 2973 2973 2973 2973 2974 2974 2974 2975 2975 2976 2976 2977 2977 2978 2978 2979 2980 2981 2981 2982 2982 2983 2984 2985 2986 2987 2988 2989 2990 2991 2992 2993 2995 2996 2997 2998 2999 3000 3002 3003 3004 3005 3006 3007 3008 3009 3010 3011 3012 3013 3014 3015 3016 3017 3018 3019 3020 3020 3021 3022 3023 3023 3024 3025 3026 3026 3027 3028 3028 3029 3029 3030 3031 3031 3032 3032 3033 3033
2967 2967 2968 2968 2969 2969 2969 2970 2970 2970 2970 2971 2971 2971 2972 2972 2973 2973 2974 2974 2975 2975 2976 2977 2978 2978 2979 2980 2981 2982 2983 2983 2984 2985 2987 2988 2988 2990 2991 2992 2993 2995 2996 2997 2998 2999 3000 3002 3003 3003 3005 3006 3007 3008 3009 3010 3011 3012 3013 3014 3015 3016 3017 3018 3018 3019 3020 3021 3022 3023 3023 3024 3024 3025 3026 3026 3027 3028 3028 3029 3029 3030 3030 3031 3031 3032
2963 2964 2965 2965 2966 2966 2966 2966 2967 2967 2968 2968 2968 2969 2969 2970 2970 2971 2971 2972 2973 2973 2974 2975 2976 2977 2977 2978 2979 2980 2981 2982 2983 2984 2985 2986 2987 2988 2990 2991 2992 2993 2995 2996 2997 2998 2999 3000 3002 3003 3004 3005 3006 3007 3008 3009 3010 3011 3012 3013 3014 3015 3016 3017 3018 3018 3019 3020 3021 3021 3022 3023 3023 3024 3024 3025 3026 3026 3027 3027 3028 3028 3029 3029 3030 3030
2960 2961 2962 2962 2962 2963 2963 2963 2964 2964 2965 2965 2966 2966 2967 2968 2968 2968 2969 2970 2971 2972 2973 2973 2974 2975 2976 2977 2978 2979 2980 2980 2982 2983 2984 2985 2987 2988 2989 2990 2991 2993 2994 2995 2996 2998 2998 2999 3001 3002 3003 3004 3005 3006 3008 3008 3009 3010 3011 3012 3013 3014 3015 3016 3017 3017 3018 3019 3019 3020 3021 3021 3022 3023 3023 3024 3024 3025 3025 3026 3027 3027 3028 3028 3028 3029
2957 2958 2958 2959 2959 2959 2960 2960 2961 2961 2962 2963 2963 2964 2964 2965 2966 2966 2967 2968 2969 2970 2971 2972 2973 2973 2975 2976 2977 2978 2978 2979 2981 2982 2983 2984 2986 2987 2988 2989 2990 2992 2993 2994 2995 2997 2998 2998 3000 3001 3002 3003 3004 3005 3007 3008 3008 3009 3010 3011 3012 3013 3014 3015 3015 3016 3017 3018 3018 3019 3019 3020 3021 3021 3022 3022 3023 3023 3024 3024 3025 3026 3026 3027 3027 3028
2954 2955 2955 2956 2956 2957 2957 2958 2958 2959 2959 2960 2961 2962 2962 2963 2963 2964 2965 2966 2967 2968 2969 2970 2971 2972 2973 2974 2975 2976 2977 2978 2980 2981 2982 2983 2985 2986 2987 2988 2989 2991 2992 2993 2994 2996 2997 2998 2999 3000 3001 3003 3003 3005 3006 3007 3008 3009 3010 3010 3011 3012 3013 3013 3014 3015 3016 3016 3017 3018 3018 3018 3019 3020 3020 3021 3021 3022 3023 3023 3023 3024 3024 3025 3025 3026
2951 2952 2953 2953 2953 2954 2954 2955 2956 2956 2957 2958 2958 2959 2960 2961 2961 2962 2963 2964 2965 2966 2968 2968 2970 2971 2972 2973 2974 2975 2976 2978 2979 2980 2981 2983 2984 2985 2986 2988 2989 2990 2991 2992 2993 2994 2996 2997 2998 2999 3000 3002 3003 3004 3005 3006 3007 3008 3008 3009 3010 3011 3012 3012 3013 3013 3014 3015 3015 3016 3016 3017 3018 3018 3019 3019 3020 3020 3021 3021 3022 3023 3023 3023 3024 3024
2948 2949 2950 2950 2950 2951 2952 2952 2953 2954 2955 2955 2956 2957 2958 2958 2959 2960 2961 2962 2963 2965 2966 2968 2968 2970 2971 2972 2973 2974 2975 2977 2978 2979 2981 2982 2983 2984 2986 2987 2988 2989 2990 2991 2992 2993 2995 2996 2997 2998 2999 3001 3002 3003 3003 3004 3005 3006 3007 3008 3009 3010 3010 3011 3012 3012 3013 3013 3014 3014 3015 3015 3016 3017 3017 3018 3018 3019 3019 3020 3020 3021 3021 3022 3022 3023
2945 2946 2947 2947 2948 2948 2949 2950 2951 2952 2952 2953 2953 2954 2955 2956 2957 2958 2959 2961 2962 2963 2965 2966 2968 2968 2970 2971 2972 2973 2974 2976 2977 2978 2980 2981 2982 2983 2985 2986 2987 2988 2989 2990 2991 2993 2994 2995 2996 2998 2998 3000 3001 3002 3003 3003 3004 3005 3006 3007 3008 3008 3009 3009 3010 3011 3011 3012 3012 3013 3013 3014 3014 3015 3016 3016 3017 3017 3018 3018 3019 3019 3019 3020 3020 3021
2942 2943 2944 2944 2945 2946 2947 2948 2948 2949 2950 2950 2951 2952 2953 2954 2955 2957 2958 2959 2961 2962 2964 2965 2966 2968 2968 2969 2971 2972 2973 2975 2976 2977 2978 2980 2981 2982 2983 2985 2986 2987 2988 2989 2990 2992 2993 2994 2995 2996 2998 2998 2999 3001 3002 3002 3003 3004 3005 3006 3006 3007 3008 3008 3008 3009 3010 3010 3011 3011 3012 3013 3013 3013 3014 3015 3015 3016 3016 3017 3017 3018 3018 3018 3019 3019
2939 2940 2941 2942 2943 2943 2944 2945 2946 2946 2947 2948 2949 2950 2951 2952 2953 2955 2956 2958 2959 2961 2963 2964 2965 2966 2967 2968 2969 2971 2972 2973 2975 2976 2978 2979 2980 2981 2982 2983 2985 2986 2987 2988 2989 2990 2992 2993 2994 2995 2996 2997 2998 2999 3000 3001 3002 3003 3003 3004 3005 3005 3006 3007 3007 3008 3008 3009 3009 3010 3010 3011 3012 3012 3013 3013 3013 3014 3014 3015 3015 3016 3016 3017 3017 3018
2936 2937 2938 2939 2940 2941 2942 2943 2943 2944 2945 2946 2947 2948 2949 2951 2952 2953 2955 2956 2958 2960 2961 2963 2964 2965 2966 2967 2968 2969 2971 2972 2973 2975 2976 2977 2978 2980 2981 2982 2983 2985 2986 2987 2988 2989 2991 2992 2993 2994 2995 2996 2997 2998 2999 3000 3001 3001 3002 3003 3003 3004 3004 3005 3006 3006 3007 3007 3008 3008 3009 3009 3010 3011 3011 3012 3012 3013 3013 3013 3014 3014 3015 3015 3015 3016
2933 2934 2935 2937 2938 2938 2939 2940 2941 2942 2943 2944 2945 2946 2948 2949 2950 2952 2953 2955 2957 2958 2960 2961 2962 2963 2964 2966 2967 2968 2970 2971 2972 2973 2975 2976 2977 2979 2980 2981 2982 2983 2985 2986 2987 2988 2989 2991 2992 2993 2994 2995 2996 2997 2998 2998 2999 3000 3001 3001 3002 3003 3003 3003 3004 3005 3005 3006 3007 3007 3008 3008 3008 3009 3009 3010 3010 3011 3011 3012 3012 3013 3013 3013 3013 3014
2930 2932 2933 2934 2935 2936 2936 2937 2938 2939 2941 2942 2943 2944 2945 2947 2949 2950 2952 2953 2955 2957 2958 2959 2961 2962 2963 2964 2966 2967 2968 2970 2971 2972 2973 2975 2976 2978 2979 2980 2981 2983 2984 2985 2986 2987 2988 2989 2991 2992 2993 2994 2994 2995 2996 2997 2998 2998 2999 3000 3000 3001 3002 3002 3003 3003 3004 3004 3005 3005 3006 3006 3007 3007 3008 3008 3008 3009 3009 3010 3010 3010 3011 3011 3012 3012
2927 2929 2930 2932 2932 2933 2934 2935 2936 2937 2938 2940 2941 2942 2944 2945 2947 2949 2950 2952 2953 2955 2957 2958 2959 2960 2962 2963 2964 2966 2967 2968 2970 2971 2972 2973 2975 2976 2978 2979 2980 2981 2983 2984 2985 2986 2987 2988 2989 2990 2991 2992 2993 2994 2994 2995 2996 2997 2997 2998 2999 2999 3000 3001 3001 3002 3002 3003 3003 3004 3004 3005 3005 3006 3006 3006 3007 3007 3008 3008 3008 3008 3009 3009 3009 3010
2925 2927 2928 2929 2930 2931 2932 2933 2934 2935 2937 2938 2939 2940 2942 2944 2945 2947 2949 2951 2952 2953 2955 2956 2958 2959 2960 2962 2963 2964 2966 2967 2969 2970 2971 2973 2974 2975 2976 2978 2979 2980 2981 2983 2984 2985 2986 2987 2988 2989 2990 2991 2992 2992 2993 2993 2994 2995 2996 2996 2997 2998 2998 2999 2999 3000 3001 3001 3002 3002 3003 3003 3003 3004 3004 3004 3005 3005 3005 3006 3006 3006 3007 3007 3007 3008
2923 2924 2925 2926 2927 2928 2929 2930 2932 2933 2935 2936 2937 2939 2940 2942 2944 2946 2948 2949 2951 2952 2953 2955 2956 2958 2959 2960 2962 2963 2965 2966 2968 2969 2970 2971 2973 2974 2975 2977 2978 2979 2980 2981 2982 2983 2984 2985 2986 2987 2988 2989 2990 2991 2991 2992 2993 2993 2994 2995 2996 2996 2997 2998 2998 2999 2999 3000 3000 3000 3001 3001 3002 3002 3002 3003 3003 3003 3003 3003 3004 3004 3004 3005 3005 3005
2920 2922 2923 2924 2925 2926 2927 2928 2930 2932 2933 2934 2936 2937 2939 2941 2943 2944 2946 2948 2949 2951 2952 2953 2955 2956 2958 2959 2960 2962 2963 2965 2966 2968 2969 2970 2971 2973 2974 2975 2977 2978 2979 2980 2981 2982 2983 2984 2984 2985 2986 2987 2988 2989 2989 2990 2991 2992 2993 2993 2994 2995 2995 2996 2997 2997 2998 2998 2998 2999 2999 2999 3000 3000 3001 3001 3001 3001 3001 3002 3002 3002 3002 3003 3003 3003
2918 2919 2920 2921 2923 2924 2925 2927 2928 2930 2931 2933 2934 2936 2938 2940 2941 2943 2945 2946 2948 2949 2951 2952 2953 2955 2956 2958 2959 2960 2962 2963 2965 2966 2968 2969 2970 2971 2973 2974 2975 2976 2977 2978 2979 2980 2981 2982 2983 2984 2985 2986 2986 2987 2988 2988 2989 2990 2991 2992 2993 2993 2994 2994 2995 2996 2996 2996 2997 2997 2997 2998 2998 2998 2999 2999 2999 2999 2999 2999 3000 3000 3000 3001 3001 3001
2915 2916 2918 2919 2920 2922 2923 2925 2927 2928 2930 2931 2933 2934 2936 2938 2940 2942 2943 2945 2946 2948 2949 2950 2952 2953 2955 2956 2958 2959 2961 2963 2964 2965 2966 2968 2969 2970 2971 2973 2973 2975 2976 2977 2978 2978 2979 2980 2981 2982 2983 2984 2984 2985 2986 2987 2988 2989 2989 2990 2991 2992 2992 2993 2993 2994 2994 2995 2995 2995 2996 2996 2996 2996 2997 2997 2997 2997 2997 2997 2998 2998 2998 2999 2999 2999